Location: Bercimuel
(41.3983°N, 3.5711°W)
Time: 12:33:54
(UTC+00:00)

Cosmos 2195 Rocket - Pass Details

Date: 15 May 2026
Orbit: 947 x 993 km, 82.9° (Epoch: 8 June)

Event Time Altitude Azimuth Distance (km) Brightness Sun altitude
Rises 22:27:43 0° 351° (N) 3,669 8.7 -25.0°
Reaches altitude 10° 22:30:15 10° 351° (N) 2,712 7.8 -25.2°
Maximum altitude 22:36:27 83° 264° (W) 970 4.4 -25.7°
Enters shadow 22:37:39 60° 188° (S) 1,085 4.4 -25.8°
